When you browse on this site, cookies collect data to enhance your experience and personalize the content and advertising you see.
Visit our Privacy Policy to learn more. By continuing to use the site, you agree to this use of cookies and data.
  • In Sweden
  • List of Countries
  • For 7 days
  • Water Temperature
  • Weather Map
  • Weather Widgets
  • user-avatar
    Login

    Hourly Weather Bron

    Today, 11 December, Wednesday

    Time Temperature Precipitation Wind Pressure Humidity
    00:00 +3°C° 0 mm 1 mps 747 mmHg 86%
    01:00 +3°C° 0 mm 1 mps 747 mmHg 83%
    02:00 +3°C° 0 mm 1 mps 746 mmHg 81%
    03:00 +3°C° 0 mm 1 mps 745 mmHg 79%
    04:00 +3°C° 0 mm 1 mps 745 mmHg 76%
    05:00 +3°C° 0 mm 1 mps 744 mmHg 73%
    06:00 +2°C° 0 mm 2 mps 744 mmHg 70%
    07:00 +3°C° 0 mm 2 mps 744 mmHg 68%
    08:00 +4°C° 0 mm 2 mps 743 mmHg 67%
    09:00 +4°C° 0 mm 2 mps 742 mmHg 65%
    10:00 +5°C° 0.3 mm 2 mps 742 mmHg 68%
    11:00 +5°C° 0.3 mm 2 mps 742 mmHg 70%
    12:00 +6°C° 0.3 mm 2 mps 741 mmHg 73%
    13:00 +5°C° 1.2 mm 2 mps 741 mmHg 80%
    14:00 +5°C° 1.2 mm 2 mps 741 mmHg 86%
    15:00 +5°C° 1.2 mm 2 mps 741 mmHg 93%
    16:00 +5°C° 1.4 mm 2 mps 741 mmHg 94%
    17:00 +6°C° 1.4 mm 1 mps 742 mmHg 94%
    18:00 +6°C° 1.4 mm 1 mps 742 mmHg 94%
    19:00 +5°C° 0 mm 1 mps 741 mmHg 93%
    20:00 +4°C° 0 mm 2 mps 741 mmHg 93%
    21:00 +4°C° 0 mm 2 mps 740 mmHg 92%
    22:00 +4°C° 0.1 mm 2 mps 740 mmHg 92%
    23:00 +4°C° 0.1 mm 2 mps 740 mmHg 91%

    Tomorrow, 12 December, Thursday

    Time Temperature Precipitation Wind Pressure Humidity
    00:00 +5°C° 0.1 mm 1 mps 740 mmHg 91%
    01:00 +5°C° 0.3 mm 1 mps 740 mmHg 91%
    02:00 +4°C° 0.3 mm 1 mps 740 mmHg 92%
    03:00 +4°C° 0.3 mm 1 mps 740 mmHg 93%
    04:00 +4°C° 0 mm 1 mps 740 mmHg 91%
    05:00 +3°C° 0 mm 1 mps 740 mmHg 90%
    06:00 +2°C° 0 mm 0 mps 740 mmHg 89%
    07:00 +3°C° 0 mm 1 mps 740 mmHg 87%
    08:00 +4°C° 0 mm 1 mps 740 mmHg 85%
    09:00 +4°C° 0 mm 1 mps 740 mmHg 83%
    10:00 +5°C° 0 mm 1 mps 739 mmHg 78%
    11:00 +6°C° 0 mm 1 mps 739 mmHg 74%
    12:00 +6°C° 0 mm 2 mps 738 mmHg 70%
    13:00 +6°C° 0 mm 2 mps 737 mmHg 72%
    14:00 +4°C° 0 mm 3 mps 737 mmHg 74%
    15:00 +4°C° 0 mm 3 mps 736 mmHg 76%
    16:00 +3°C° 0 mm 3 mps 735 mmHg 77%
    17:00 +3°C° 0 mm 4 mps 734 mmHg 78%
    18:00 +1°C° 0 mm 4 mps 733 mmHg 79%
    19:00 +1°C° 0.5 mm 5 mps 732 mmHg 81%
    20:00 +1°C° 0.5 mm 5 mps 731 mmHg 83%
    21:00 +2°C° 0.5 mm 6 mps 730 mmHg 86%
    22:00 +2°C° 0.8 mm 6 mps 730 mmHg 87%
    23:00 +2°C° 0.8 mm 6 mps 729 mmHg 89%

    Day after tomorrow, 13 December, Friday

    Time Temperature Precipitation Wind Pressure Humidity
    00:00 +3°C° 0.8 mm 6 mps 729 mmHg 90%
    01:00 +3°C° 0.9 mm 6 mps 728 mmHg 91%
    02:00 +3°C° 0.9 mm 6 mps 727 mmHg 92%
    03:00 +4°C° 0.9 mm 6 mps 726 mmHg 92%
    04:00 +4°C° 0.8 mm 6 mps 725 mmHg 92%
    05:00 +4°C° 0.8 mm 6 mps 725 mmHg 92%
    06:00 +5°C° 0.8 mm 6 mps 724 mmHg 92%
    07:00 +6°C° 1.4 mm 5 mps 724 mmHg 91%
    08:00 +7°C° 1.4 mm 3 mps 725 mmHg 91%
    09:00 +7°C° 1.4 mm 2 mps 725 mmHg 90%
    10:00 +6°C° 0.4 mm 4 mps 726 mmHg 82%
    11:00 +6°C° 0.4 mm 5 mps 726 mmHg 73%
    12:00 +6°C° 0.4 mm 7 mps 727 mmHg 65%
    13:00 +5°C° 0.2 mm 6 mps 728 mmHg 69%
    14:00 +4°C° 0.2 mm 6 mps 729 mmHg 73%
    15:00 +3°C° 0.2 mm 5 mps 730 mmHg 78%
    16:00 +4°C° 0 mm 4 mps 731 mmHg 80%
    17:00 +3°C° 0 mm 3 mps 732 mmHg 81%
    18:00 +4°C° 0 mm 2 mps 733 mmHg 83%
    19:00 +4°C° 0 mm 2 mps 734 mmHg 83%
    20:00 +5°C° 0 mm 1 mps 734 mmHg 84%
    21:00 +5°C° 0 mm 1 mps 735 mmHg 85%
    22:00 +5°C° 0 mm 1 mps 736 mmHg 86%
    23:00 +4°C° 0 mm 2 mps 736 mmHg 87%

    14 December, Saturday

    Time Temperature Precipitation Wind Pressure Humidity
    00:00 +4°C° 0 mm 2 mps 737 mmHg 88%
    01:00 +3°C° 0.4 mm 3 mps 737 mmHg 90%
    02:00 +3°C° 0.4 mm 3 mps 737 mmHg 92%
    03:00 +3°C° 0.4 mm 4 mps 737 mmHg 94%
    04:00 +3°C° 1 mm 4 mps 737 mmHg 94%
    05:00 +3°C° 1 mm 4 mps 737 mmHg 93%
    06:00 +4°C° 1 mm 4 mps 737 mmHg 93%
    07:00 +4°C° 1.1 mm 4 mps 737 mmHg 93%
    08:00 +5°C° 1.1 mm 4 mps 738 mmHg 93%
    09:00 +5°C° 1.1 mm 3 mps 738 mmHg 93%
    10:00 +7°C° 0.2 mm 3 mps 738 mmHg 92%
    11:00 +7°C° 0.2 mm 4 mps 738 mmHg 90%
    12:00 +8°C° 0.2 mm 4 mps 738 mmHg 89%
    13:00 +8°C° 0.1 mm 4 mps 738 mmHg 88%
    14:00 +10°C° 0.1 mm 4 mps 739 mmHg 87%
    15:00 +10°C° 0.1 mm 4 mps 739 mmHg 86%
    16:00 +10°C° 0 mm 4 mps 739 mmHg 87%
    17:00 +9°C° 0 mm 3 mps 740 mmHg 88%
    18:00 +9°C° 0 mm 3 mps 740 mmHg 88%
    19:00 +9°C° 0 mm 3 mps 740 mmHg 88%
    20:00 +9°C° 0 mm 3 mps 740 mmHg 88%
    21:00 +8°C° 0 mm 3 mps 740 mmHg 87%
    22:00 +8°C° 0 mm 3 mps 740 mmHg 87%
    23:00 +8°C° 0 mm 3 mps 740 mmHg 87%

    15 December, Sunday

    Time Temperature Precipitation Wind Pressure Humidity
    00:00 +8°C° 0 mm 3 mps 740 mmHg 87%
    01:00 +7°C° 0 mm 4 mps 740 mmHg 87%
    02:00 +7°C° 0 mm 4 mps 741 mmHg 86%
    03:00 +7°C° 0 mm 4 mps 741 mmHg 86%
    04:00 +7°C° 0 mm 4 mps 741 mmHg 85%
    05:00 +7°C° 0 mm 4 mps 741 mmHg 84%
    06:00 +7°C° 0 mm 4 mps 741 mmHg 83%
    07:00 +8°C° 0 mm 4 mps 742 mmHg 82%
    08:00 +8°C° 0 mm 4 mps 742 mmHg 81%
    09:00 +8°C° 0 mm 4 mps 742 mmHg 81%
    10:00 +10°C° 0 mm 4 mps 742 mmHg 79%
    11:00 +11°C° 0 mm 4 mps 743 mmHg 77%
    12:00 +11°C° 0 mm 4 mps 743 mmHg 76%
    13:00 +11°C° 0 mm 3 mps 743 mmHg 77%
    14:00 +11°C° 0 mm 3 mps 743 mmHg 78%
    15:00 +11°C° 0 mm 3 mps 743 mmHg 80%
    16:00 +10°C° 0 mm 3 mps 743 mmHg 82%
    17:00 +10°C° 0 mm 3 mps 743 mmHg 84%
    18:00 +9°C° 0 mm 3 mps 743 mmHg 86%
    19:00 +9°C° 0 mm 3 mps 743 mmHg 86%
    20:00 +9°C° 0 mm 3 mps 743 mmHg 86%
    21:00 +9°C° 0 mm 3 mps 743 mmHg 85%
    22:00 +9°C° 0 mm 3 mps 743 mmHg 85%
    23:00 +8°C° 0 mm 3 mps 743 mmHg 84%

    16 December, Monday

    Time Temperature Precipitation Wind Pressure Humidity
    00:00 +8°C° 0 mm 3 mps 743 mmHg 84%
    01:00 +8°C° 0 mm 3 mps 742 mmHg 84%
    02:00 +8°C° 0 mm 3 mps 742 mmHg 84%
    03:00 +8°C° 0 mm 3 mps 741 mmHg 83%
    04:00 +8°C° 0 mm 4 mps 741 mmHg 82%
    05:00 +8°C° 0 mm 5 mps 741 mmHg 81%
    06:00 +8°C° 0 mm 5 mps 741 mmHg 80%
    07:00 +9°C° 0 mm 5 mps 741 mmHg 79%
    08:00 +9°C° 0 mm 5 mps 741 mmHg 77%
    09:00 +9°C° 0 mm 6 mps 741 mmHg 76%
    10:00 +10°C° 0 mm 6 mps 740 mmHg 73%
    11:00 +11°C° 0 mm 6 mps 740 mmHg 70%
    12:00 +11°C° 0 mm 6 mps 739 mmHg 67%
    13:00 +11°C° 0 mm 7 mps 739 mmHg 68%
    14:00 +11°C° 0 mm 7 mps 738 mmHg 69%
    15:00 +11°C° 0 mm 7 mps 738 mmHg 70%
    16:00 +11°C° 0 mm 7 mps 738 mmHg 71%
    17:00 +10°C° 0 mm 7 mps 738 mmHg 71%
    18:00 +10°C° 0 mm 7 mps 738 mmHg 72%
    19:00 +11°C° 0 mm 7 mps 737 mmHg 71%
    20:00 +11°C° 0 mm 8 mps 737 mmHg 70%
    21:00 +11°C° 0 mm 9 mps 737 mmHg 69%
    22:00 +11°C° 0 mm 8 mps 737 mmHg 68%
    23:00 +11°C° 0 mm 8 mps 737 mmHg 68%
    Show more